Location: Sabalos
(43.2860°N, 0.1414°E)
Time: 08:46:16
(UTC+00:00)

SL-8 Rocket - Pass Details

Date: 05 July 2020
Orbit: 958 x 990 km, 82.9° (Epoch: 14 August)

Event Time Altitude Azimuth Distance (km) Brightness Sun altitude
Exits shadow 23:31:01 50° 184° (S) 1,204 4.0 -23.6°
Maximum altitude 23:32:46 88° 96° (E) 968 3.9 -23.7°
Drops below altitude 10° 23:38:57 10° 8° (N) 2,701 7.3 -23.8°
Sets 23:41:27 0° 9° (N) 3,650 8.3 -23.8°
